Voltar ao catálogo

GSAT 16

AtivoComunicaçõesGEO
NORAD 40332·PAYLOAD·🇮🇳 India

Lançado Dec 6, 2014 de Guiana Space Centre

Loading…

TLE

AtualizadoSource: Space-Track

Época: Sep 14, 2026, 14:03 UTC

1 40332U 14078A   26257.58602106  .00000077  00000-0  00000-0 0  9996
2 40332   0.0167 230.5207 0005946 241.0353 148.0503  1.00272364 43013

Acompanhe GSAT 16 em tempo real com AllMySat

Download on the App Store